Showing default

LEAP-1, 65321

Orbit data source: Space-Track

LEAP-1, 65321 is a payload satellite owned by Dhruva Space (IN) in SSO that was launched on Tue, 26 Aug 2025 UTC via an FALCON 9 launch vehicle from the Air Force Western Test Range (AFWTR). Payload-class satellites include a variety of spacecraft equipped with specific instruments for various scientific and technological missions. These include communications satellites like Starlink; space stations such as the ISS; scientific satellites like the Hubble; Earth observation satellites from companies like Planet Labs, Umbra, and HawkEye 360; GPS; miniature CubeSats for education and research; and military/defense satellites.

Loading next visibility...
Identifier
65321, 2025-188G
Orbit
SSO
Country
Flag of ININ / IND
Related business
Manufacturer
Dhruva Space
Mission
Operational Commercial Technology
Bus & Motor
P-30, Unknown motor
Mass
~25 kg wet, ~25 kg dry
Launch date (UTC)
2025-08-26 (8 months ago)
Launch vehicle
FALCON 9
Launch site
Air Force Western Test Range (AFWTR)
Object type
Payload
Rocket body
Debris
Shape & HBR
Box + 2 Pan, 14.5 m
Radar Cross Section
0.237 m², Medium (>0.1 m² and < 1m²)

Expand to show TLE details & history
Last TLE update: 10 hours ago

TLE from 10 hours ago
0 LEAP-1
1 65321U 25188G   26124.17859554  .00002184  00000-0  22460-3 0  9992
2 65321  97.7372 199.4028 0003154  23.2337 336.9024 14.91334383 37297
Epoch: 2026-05-04T04:17Z
TLE epoch observation values (Epoch: 2026-05-04T04:17:10.654Z)
Latitude
Longitude
-86.96311°
Altitude
594.793 km
Speed
7.564 km/s
True Right ascension
13h 17m 36s
True Declination
0° 00' 00"
Sunlit
Object was in full shadow at epoch
Visualization orbit readout
Latitude
Unknown
Longitude
Unknown
Altitude
Unknown
Speed
Unknown
Apparent Right ascension
Unknown
Apparent Declination
Unknown
Sunlit
N/A
Visualization observer readout
Local Sidereal Time
21:52:11
Azimuth
Unknown
Elevation
Unknown
Doppler factor
Unknown
Orbital elements
Apogee altitude
592.99 km
Perigee altitude
588.594 km
Semi-major axis
6,968.929 km
Eccentricity
0.00032
Inclination
97.7372°
RAAN
199.4028°
Arg. of periapsis
23.2337°
True anomaly
336.88822°
Mean anomaly
336.9024°
Eccentric anomaly
336.89531°
Mean motion
3.73073 °/min
Orbital period
96.5 mins
BSTAR
0.0002246
Loading maneuver chart data...
Computing Atmospheric mass density...
Loading historical data...
Loading historical data...
Loading historical data...
Loading historical data...
Loading historical data...
Loading historical data...
Loading historical data...

Documentation

Showing up to 5 results
|